Main page
Satellite images Climate Cyclones Lightning AirportsFAQ Languages Contact Newsletter About
Weather : Europe Africa North America South America Asia Australia-Oceania Others

phnom-penh-kh, Phnom Penh, Phnom Penh International Airport

latitude: , longitude: Cambodia, elevation: 11-33N m


METAR: VDPP 240530Z 07019KT 040V120 8000 -TSRA SCT015 FEW017CB BKN040 26/22 Q1008 S/SE/OVER RWY